Location: ????
(30.1475°N, 31.1342°E)
Time: 13:47:55
(UTC+00:00)

CZ-2C R/B - Pass Details

Date: 27 September 2022
Orbit: 784 x 870 km, 98.3° (Epoch: 26 November)

Event Time Altitude Azimuth Distance (km) Brightness Sun altitude
Rises 03:11:09 0° 201° (SSW) 3,257 5.5 -8.5°
Reaches altitude 10° 03:14:00 10° 217° (SW) 2,336 4.6 -7.8°
Maximum altitude 03:17:48 21° 265° (W) 1,718 3.7 -7.0°
Drops below altitude 10° 03:21:39 10° 313° (NW) 2,365 4.6 -6.2°
Sets 03:24:35 0° 329° (NNW) 3,311 5.5 -5.6°
